This demonstration page uses our WeatherBlox Daily Observations layout. Learn more.

Left ArrowRight Arrow

44.89941, -97.11507

Hourly Observations for July 22, 2020

Temp ( °F °C ) Dew Point ( °F °C ) Humidity (%) Winds ( mph kmh ) Pressure ( in mb ) Visibility ( mi km ) Precip ( " mm )
12:53 am 00:53 Clear 61 16.1 58 14.4 90 90 Calm 30.01 1016 10 16 0.00 0.00
1:53 am 01:53 Clear 58 14.4 57 13.9 97 97 Calm 30.01 1016 9 14 0.00 0.00
2:34 am 02:34 Clear with Mist and Fog 57 13.9 57 13.9 100 100 Calm 30.00 1016 2 3 0.00 0.00
2:42 am 02:42 Clear with Mist and Fog 57 13.9 57 13.9 100 100 Calm 30.00 1016 3 5 0.00 0.00
2:53 am 02:53 Clear 58 14.4 57 13.9 97 97 Calm 30.00 1016 10 16 0.00 0.00
3:53 am 03:53 Clear with Mist and Fog 58 14.4 57 13.9 97 97 Calm 30.00 1016 4 6 0.00 0.00
3:55 am 03:55 Clear with Mist and Fog 57 13.9 57 13.9 100 100 Calm 30.00 1016 1 2 0.00 0.00
4:03 am 04:03 Clear with Mist and Fog 58 14.4 57 13.9 97 97 Calm 30.00 1016 1 1 0.00 0.00
4:21 am 04:21 Mostly Cloudy with Fog 55 12.8 55 12.8 100 100 Calm 30.01 1016 0 0 0.00 0.00
4:32 am 04:32 Mostly Cloudy with Mist and Fog 56 13.3 55 12.8 97 97 Calm 30.01 1016 1 2 0.00 0.00
4:35 am 04:35 Partly Cloudy with Mist and Fog 56 13.3 56 13.3 100 100 Calm 30.01 1016 2 3 0.00 0.00
4:42 am 04:42 Mostly Clear 56 13.3 56 13.3 100 100 Calm 30.01 1016 10 16 0.00 0.00
4:53 am 04:53 Mostly Clear 54 12.2 54 12.2 100 100 N 5 7 30.01 1016 10 16 0.00 0.00
5:43 am 05:43 Mostly Clear with Mist and Fog 55 12.8 55 12.8 100 100 Calm 30.02 1017 2 2 0.00 0.00
5:45 am 05:45 Mostly Cloudy with Mist and Fog 55 12.8 54 12.2 96 96 NNE 3 6 30.02 1017 1 2 0.00 0.00
5:53 am 05:53 Mostly Cloudy with Fog 54 12.2 54 12.2 100 100 Calm 30.02 1017 1 1 0.00 0.00
5:57 am 05:57 Mostly Clear with Mist and Fog 54 12.2 54 12.2 100 100 Calm 30.02 1017 1 2 0.00 0.00
5:59 am 05:59 Partly Cloudy with Mist and Fog 54 12.2 54 12.2 100 100 Calm 30.02 1017 3 4 0.00 0.00
6:06 am 06:06 Mostly Cloudy 55 12.8 55 12.8 100 100 Calm 30.03 1017 10 16 0.00 0.00
6:53 am 06:53 Cloudy 58 14.4 57 13.9 97 97 Calm 30.03 1017 10 16 0.00 0.00
7:53 am 07:53 Sunny 63 17.2 61 16.1 93 93 E 5 7 30.03 1017 10 16 0.00 0.00
8:53 am 08:53 Sunny 67 19.4 61 16.1 81 81 ENE 6 9 30.04 1017 10 16 0.00 0.00
9:53 am 09:53 Sunny 70 21.1 60 15.6 71 71 NE 9 15 30.03 1017 10 16 0.00 0.00
10:53 am 10:53 Sunny 70 21.1 60 15.6 71 71 ENE 8 13 30.04 1017 10 16 0.00 0.00
11:53 am 11:53 Sunny 70 21.1 59 15 68 68 E 7 11 30.05 1018 10 16 0.00 0.00
12:53 pm 12:53 Sunny 70 21.1 59 15 68 68 ESE 7 11 30.06 1018 10 16 0.00 0.00
1:53 pm 13:53 Sunny 72 22.2 59 15 64 64 VRB 6 9 30.05 1018 10 16 0.00 0.00
2:53 pm 14:53 Sunny 75 23.9 61 16.1 62 62 E 8 13 30.03 1017 10 16 0.00 0.00
3:53 pm 15:53 Sunny 76 24.4 61 16.1 60 60 SE 3 6 30.01 1016 10 16 0.00 0.00
4:53 pm 16:53 Sunny 76 24.4 61 16.1 60 60 VRB 5 7 30.02 1017 10 16 0.00 0.00
5:53 pm 17:53 Partly Cloudy 77 25 59 15 54 54 SSE 7 11 30.00 1016 10 16 0.00 0.00
6:53 pm 18:53 Mostly Cloudy 76 24.4 59 15 56 56 SE 9 15 29.99 1016 10 16 0.00 0.00
7:53 pm 19:53 Sunny 75 23.9 60 15.6 60 60 SE 9 15 29.98 1015 10 16 0.00 0.00
8:53 pm 20:53 Sunny 72 22.2 62 16.7 71 71 E 7 11 29.99 1016 10 16 0.00 0.00
9:53 pm 21:53 Clear 68 20 61 16.1 78 78 E 8 13 30.01 1016 10 16 0.00 0.00
10:53 pm 22:53 Clear 67 19.4 59 15 76 76 E 9 15 30.02 1017 10 16 0.00 0.00
11:53 pm 23:53 Clear 65 18.3 58 14.4 78 78 ESE 8 13 30.02 1017 10 16 0.00 0.00

Powered by AerisWeather